Year,Month,Day,Hour,Minute,Value (Times are PST for temperature in C)
2016,07,27,00,00,13.80
2016,07,27,00,01,13.80
2016,07,27,00,02,13.80
2016,07,27,00,03,13.80
2016,07,27,00,04,13.90
2016,07,27,00,05,13.90
2016,07,27,00,06,13.90
2016,07,27,00,07,13.90
2016,07,27,00,08,13.90
2016,07,27,00,09,13.90
2016,07,27,00,10,13.90
2016,07,27,00,11,13.90
2016,07,27,00,12,13.90
2016,07,27,00,13,13.90
2016,07,27,00,14,13.90
2016,07,27,00,15,13.90
2016,07,27,00,16,13.90
2016,07,27,00,17,13.90
2016,07,27,00,18,13.90
2016,07,27,00,19,13.90
2016,07,27,00,20,13.90
2016,07,27,00,21,13.90
2016,07,27,00,22,13.80
2016,07,27,00,23,13.80
2016,07,27,00,24,13.70
2016,07,27,00,25,13.70
2016,07,27,00,26,13.80
2016,07,27,00,27,13.80
2016,07,27,00,28,13.80
2016,07,27,00,29,13.80
2016,07,27,00,30,13.70
2016,07,27,00,31,13.70
2016,07,27,00,32,13.70
2016,07,27,00,33,13.70
2016,07,27,00,34,13.70
2016,07,27,00,35,13.70
2016,07,27,00,36,13.70
2016,07,27,00,37,13.80
2016,07,27,00,38,13.80
2016,07,27,00,39,13.80
2016,07,27,00,40,13.80
2016,07,27,00,41,13.80
2016,07,27,00,42,13.80
2016,07,27,00,43,13.80
2016,07,27,00,44,13.80
2016,07,27,00,45,13.80
2016,07,27,00,46,13.80
2016,07,27,00,47,13.80
2016,07,27,00,48,13.80
2016,07,27,00,49,13.80
2016,07,27,00,50,13.80
2016,07,27,00,51,13.80
2016,07,27,00,52,13.80
2016,07,27,00,53,13.80
2016,07,27,00,54,13.80
2016,07,27,00,55,13.70
2016,07,27,00,56,13.70
2016,07,27,00,57,13.60
2016,07,27,00,58,13.60
2016,07,27,00,59,13.60
2016,07,27,01,00,13.60
2016,07,27,01,01,13.60
2016,07,27,01,02,13.60
2016,07,27,01,03,13.60
2016,07,27,01,04,13.60
2016,07,27,01,05,13.60
2016,07,27,01,06,13.60
2016,07,27,01,07,13.60
2016,07,27,01,08,13.60
2016,07,27,01,09,13.60
2016,07,27,01,10,13.60
2016,07,27,01,11,13.60
2016,07,27,01,12,13.50
2016,07,27,01,13,13.50
2016,07,27,01,14,13.50
2016,07,27,01,15,13.50
2016,07,27,01,16,13.60
2016,07,27,01,17,13.60
2016,07,27,01,18,13.60
2016,07,27,01,19,13.60
2016,07,27,01,20,13.60
2016,07,27,01,21,13.60
2016,07,27,01,22,13.60
2016,07,27,01,23,13.60
2016,07,27,01,24,13.60
2016,07,27,01,25,13.50
2016,07,27,01,26,13.50
2016,07,27,01,27,13.40
2016,07,27,01,28,13.40
2016,07,27,01,29,13.30
2016,07,27,01,30,13.30
2016,07,27,01,31,13.20
2016,07,27,01,32,13.20
2016,07,27,01,33,13.10
2016,07,27,01,34,13.10
2016,07,27,01,35,13.10
2016,07,27,01,36,13.20
2016,07,27,01,37,13.20
2016,07,27,01,38,13.30
2016,07,27,01,39,13.30
2016,07,27,01,40,13.30
2016,07,27,01,41,13.40
2016,07,27,01,42,13.40
2016,07,27,01,43,13.40
2016,07,27,01,44,13.40
2016,07,27,01,45,13.40
2016,07,27,01,46,13.40
2016,07,27,01,47,13.40
2016,07,27,01,48,13.40
2016,07,27,01,49,13.40
2016,07,27,01,50,13.40
2016,07,27,01,51,13.40
2016,07,27,01,52,13.40
2016,07,27,01,53,13.40
2016,07,27,01,54,13.40
2016,07,27,01,55,13.40
2016,07,27,01,56,13.40
2016,07,27,01,57,13.40
2016,07,27,01,58,13.40
2016,07,27,01,59,13.40
2016,07,27,02,00,13.40
2016,07,27,02,01,13.40
2016,07,27,02,02,13.40
2016,07,27,02,03,13.40
2016,07,27,02,04,13.40
2016,07,27,02,05,13.40
2016,07,27,02,06,13.40
2016,07,27,02,07,13.40
2016,07,27,02,08,13.40
2016,07,27,02,09,13.40
2016,07,27,02,10,13.40
2016,07,27,02,11,13.40
2016,07,27,02,12,13.40
2016,07,27,02,13,13.40
2016,07,27,02,14,13.40
2016,07,27,02,15,13.40
2016,07,27,02,16,13.40
2016,07,27,02,17,13.40
2016,07,27,02,18,13.40
2016,07,27,02,19,13.40
2016,07,27,02,20,13.50
2016,07,27,02,21,13.50
2016,07,27,02,22,13.40
2016,07,27,02,23,13.50
2016,07,27,02,24,13.50
2016,07,27,02,25,13.50
2016,07,27,02,26,13.50
2016,07,27,02,27,13.50
2016,07,27,02,28,13.60
2016,07,27,02,29,13.60
2016,07,27,02,30,13.60
2016,07,27,02,31,13.60
2016,07,27,02,32,13.60
2016,07,27,02,33,13.60
2016,07,27,02,34,13.60
2016,07,27,02,35,13.60
2016,07,27,02,36,13.60
2016,07,27,02,37,13.70
2016,07,27,02,38,13.70
2016,07,27,02,39,13.70
2016,07,27,02,40,13.70
2016,07,27,02,41,13.70
2016,07,27,02,42,13.70
2016,07,27,02,43,13.70
2016,07,27,02,44,13.70
2016,07,27,02,45,13.70
2016,07,27,02,46,13.70
2016,07,27,02,47,13.70
2016,07,27,02,48,13.70
2016,07,27,02,49,13.70
2016,07,27,02,50,13.70
2016,07,27,02,51,13.70
2016,07,27,02,52,13.70
2016,07,27,02,53,13.70
2016,07,27,02,54,13.70
2016,07,27,02,55,13.70
2016,07,27,02,56,13.70
2016,07,27,02,57,13.70
2016,07,27,02,58,13.70
2016,07,27,02,59,13.70
2016,07,27,03,00,13.70
2016,07,27,03,01,13.70
2016,07,27,03,02,13.60
2016,07,27,03,03,13.60
2016,07,27,03,04,13.60
2016,07,27,03,05,13.60
2016,07,27,03,06,13.60
2016,07,27,03,07,13.60
2016,07,27,03,08,13.60
2016,07,27,03,09,13.60
2016,07,27,03,10,13.70
2016,07,27,03,11,13.70
2016,07,27,03,12,13.70
2016,07,27,03,13,13.70
2016,07,27,03,14,13.70
2016,07,27,03,15,13.70
2016,07,27,03,16,13.70
2016,07,27,03,17,13.70
2016,07,27,03,18,13.70
2016,07,27,03,19,13.70
2016,07,27,03,20,13.70
2016,07,27,03,21,13.70
2016,07,27,03,22,13.70
2016,07,27,03,23,13.70
2016,07,27,03,24,13.70
2016,07,27,03,25,13.70
2016,07,27,03,26,13.70
2016,07,27,03,27,13.70
2016,07,27,03,28,13.70
2016,07,27,03,29,13.70
2016,07,27,03,30,13.70
2016,07,27,03,31,13.70
2016,07,27,03,32,13.70
2016,07,27,03,33,13.70
2016,07,27,03,34,13.70
2016,07,27,03,35,13.70
2016,07,27,03,36,13.70
2016,07,27,03,37,13.70
2016,07,27,03,38,13.70
2016,07,27,03,39,13.70
2016,07,27,03,40,13.70
2016,07,27,03,41,13.70
2016,07,27,03,42,13.70
2016,07,27,03,43,13.70
2016,07,27,03,44,13.70
2016,07,27,03,45,13.70
2016,07,27,03,46,13.70
2016,07,27,03,47,13.70
2016,07,27,03,48,13.70
2016,07,27,03,49,13.70
2016,07,27,03,50,13.70
2016,07,27,03,51,13.70
2016,07,27,03,52,13.70
2016,07,27,03,53,13.70
2016,07,27,03,54,13.70
2016,07,27,03,55,13.70
2016,07,27,03,56,13.70
2016,07,27,03,57,13.70
2016,07,27,03,58,13.70
2016,07,27,03,59,13.60
2016,07,27,04,00,13.60
2016,07,27,04,01,13.60
2016,07,27,04,02,13.60
2016,07,27,04,03,13.60
2016,07,27,04,04,13.60
2016,07,27,04,05,13.60
2016,07,27,04,06,13.60
2016,07,27,04,07,13.60
2016,07,27,04,08,13.60
2016,07,27,04,09,13.60
2016,07,27,04,10,13.50
2016,07,27,04,11,13.50
2016,07,27,04,12,13.50
2016,07,27,04,13,13.50
2016,07,27,04,14,13.50
2016,07,27,04,15,13.50
2016,07,27,04,16,13.40
2016,07,27,04,17,13.40
2016,07,27,04,18,13.40
2016,07,27,04,19,13.40
2016,07,27,04,20,13.40
2016,07,27,04,21,13.40
2016,07,27,04,22,13.40
2016,07,27,04,23,13.40
2016,07,27,04,24,13.40
2016,07,27,04,25,13.40
2016,07,27,04,26,13.40
2016,07,27,04,27,13.40
2016,07,27,04,28,13.40
2016,07,27,04,29,13.40
2016,07,27,04,30,13.40
2016,07,27,04,31,13.40
2016,07,27,04,32,13.40
2016,07,27,04,33,13.40
2016,07,27,04,34,13.40
2016,07,27,04,35,13.30
2016,07,27,04,36,13.30
2016,07,27,04,37,13.30
2016,07,27,04,38,13.30
2016,07,27,04,39,13.30
2016,07,27,04,40,13.30
2016,07,27,04,41,13.30
2016,07,27,04,42,13.30
2016,07,27,04,43,13.30
2016,07,27,04,44,13.30
2016,07,27,04,45,13.30
2016,07,27,04,46,13.30
2016,07,27,04,47,13.30
2016,07,27,04,48,13.30
2016,07,27,04,49,13.30
2016,07,27,04,50,13.30
2016,07,27,04,51,13.30
2016,07,27,04,52,13.30
2016,07,27,04,53,13.30
2016,07,27,04,54,13.30
2016,07,27,04,55,13.30
2016,07,27,04,56,13.30
2016,07,27,04,57,13.30
2016,07,27,04,58,13.30
2016,07,27,04,59,13.30
2016,07,27,05,00,13.30
2016,07,27,05,01,13.30
2016,07,27,05,02,13.30
2016,07,27,05,03,13.30
2016,07,27,05,04,13.30
2016,07,27,05,05,13.20
2016,07,27,05,06,13.20
2016,07,27,05,07,13.20
2016,07,27,05,08,13.20
2016,07,27,05,09,13.20
2016,07,27,05,10,13.20
2016,07,27,05,11,13.20
2016,07,27,05,12,13.20
2016,07,27,05,13,13.20
2016,07,27,05,14,13.20
2016,07,27,05,15,13.20
2016,07,27,05,16,13.20
2016,07,27,05,17,13.10
2016,07,27,05,18,13.10
2016,07,27,05,19,13.10
2016,07,27,05,20,13.10
2016,07,27,05,21,13.10
2016,07,27,05,22,13.10
2016,07,27,05,23,13.10
2016,07,27,05,24,13.10
2016,07,27,05,25,13.10
2016,07,27,05,26,13.10
2016,07,27,05,27,13.10
2016,07,27,05,28,13.10
2016,07,27,05,29,13.00
2016,07,27,05,30,13.00
2016,07,27,05,31,13.00
2016,07,27,05,32,13.00
2016,07,27,05,33,13.00
2016,07,27,05,34,13.00
2016,07,27,05,35,13.10
2016,07,27,05,36,13.00
2016,07,27,05,37,13.00
2016,07,27,05,38,13.00
2016,07,27,05,39,13.00
2016,07,27,05,40,13.00
2016,07,27,05,41,13.00
2016,07,27,05,42,13.00
2016,07,27,05,43,13.00
2016,07,27,05,44,13.00
2016,07,27,05,45,13.00
2016,07,27,05,46,13.00
2016,07,27,05,47,13.00
2016,07,27,05,48,13.00
2016,07,27,05,49,13.00
2016,07,27,05,50,13.00
2016,07,27,05,51,13.00
2016,07,27,05,52,13.00
2016,07,27,05,53,13.00
2016,07,27,05,54,13.00
2016,07,27,05,55,13.00
2016,07,27,05,56,13.00
2016,07,27,05,57,13.00
2016,07,27,05,58,13.00
2016,07,27,05,59,13.00
2016,07,27,06,00,13.00
2016,07,27,06,01,13.00
2016,07,27,06,02,13.00
2016,07,27,06,03,13.00
2016,07,27,06,04,13.00
2016,07,27,06,05,12.90
2016,07,27,06,06,13.00
2016,07,27,06,07,13.00
2016,07,27,06,08,13.00
2016,07,27,06,09,13.00
2016,07,27,06,10,12.90
2016,07,27,06,11,12.90
2016,07,27,06,12,12.90
2016,07,27,06,13,12.90
2016,07,27,06,14,12.90
2016,07,27,06,15,12.90
2016,07,27,06,16,12.90
2016,07,27,06,17,12.90
2016,07,27,06,18,12.90
2016,07,27,06,19,12.90
2016,07,27,06,20,12.90
2016,07,27,06,21,12.90
2016,07,27,06,22,12.90
2016,07,27,06,23,12.90
2016,07,27,06,24,12.90
2016,07,27,06,25,12.90
2016,07,27,06,26,12.90
2016,07,27,06,27,12.90
2016,07,27,06,28,12.90
2016,07,27,06,29,12.90
2016,07,27,06,30,12.90
2016,07,27,06,31,12.90
2016,07,27,06,32,12.90
2016,07,27,06,33,12.90
2016,07,27,06,34,12.90
2016,07,27,06,35,12.90
2016,07,27,06,36,12.90
2016,07,27,06,37,12.90
2016,07,27,06,38,12.90
2016,07,27,06,39,12.90
2016,07,27,06,40,12.90
2016,07,27,06,41,12.90
2016,07,27,06,42,12.90
2016,07,27,06,43,13.00
2016,07,27,06,44,13.00
2016,07,27,06,45,13.00
2016,07,27,06,46,13.00
2016,07,27,06,47,13.00
2016,07,27,06,48,13.00
2016,07,27,06,49,13.10
2016,07,27,06,50,13.10
2016,07,27,06,51,13.10
2016,07,27,06,52,13.10
2016,07,27,06,53,13.10
2016,07,27,06,54,13.10
2016,07,27,06,55,13.10
2016,07,27,06,56,13.10
2016,07,27,06,57,13.10
2016,07,27,06,58,13.10
2016,07,27,06,59,13.10
2016,07,27,07,00,13.10
2016,07,27,07,01,13.10
2016,07,27,07,02,13.10
2016,07,27,07,03,13.10
2016,07,27,07,04,13.20
2016,07,27,07,05,13.20
2016,07,27,07,06,13.20
2016,07,27,07,07,13.20
2016,07,27,07,08,13.20
2016,07,27,07,09,13.20
2016,07,27,07,10,13.10
2016,07,27,07,11,13.10
2016,07,27,07,12,13.10
2016,07,27,07,13,13.10
2016,07,27,07,14,13.20
2016,07,27,07,15,13.20
2016,07,27,07,16,13.20
2016,07,27,07,17,13.20
2016,07,27,07,18,13.10
2016,07,27,07,19,13.10
2016,07,27,07,20,13.10
2016,07,27,07,21,13.10
2016,07,27,07,22,13.20
2016,07,27,07,23,13.20
2016,07,27,07,24,13.20
2016,07,27,07,25,13.20
2016,07,27,07,26,13.20
2016,07,27,07,27,13.20
2016,07,27,07,28,13.20
2016,07,27,07,29,13.20
2016,07,27,07,30,13.10
2016,07,27,07,31,13.10
2016,07,27,07,32,13.10
2016,07,27,07,33,13.10
2016,07,27,07,34,13.10
2016,07,27,07,35,13.10
2016,07,27,07,36,13.20
2016,07,27,07,37,13.20
2016,07,27,07,38,13.20
2016,07,27,07,39,13.20
2016,07,27,07,40,13.10
2016,07,27,07,41,13.10
2016,07,27,07,42,13.10
2016,07,27,07,43,13.10
2016,07,27,07,44,13.10
2016,07,27,07,45,13.10
2016,07,27,07,46,13.20
2016,07,27,07,47,13.20
2016,07,27,07,48,13.20
2016,07,27,07,49,13.20
2016,07,27,07,50,13.20
2016,07,27,07,51,13.20
2016,07,27,07,52,13.20
2016,07,27,07,53,13.20
2016,07,27,07,54,13.30
2016,07,27,07,55,13.30
2016,07,27,07,56,13.30
2016,07,27,07,57,13.30
2016,07,27,07,58,13.30
2016,07,27,07,59,13.30
2016,07,27,08,00,13.30
2016,07,27,08,01,13.30
2016,07,27,08,02,13.30
2016,07,27,08,03,13.20
2016,07,27,08,04,13.20
2016,07,27,08,05,13.20
2016,07,27,08,06,13.20
2016,07,27,08,07,13.20
2016,07,27,08,08,13.20
2016,07,27,08,09,13.20
2016,07,27,08,10,13.20
2016,07,27,08,11,13.20
2016,07,27,08,12,13.10
2016,07,27,08,13,13.10
2016,07,27,08,14,13.10
2016,07,27,08,15,13.20
2016,07,27,08,16,13.20
2016,07,27,08,17,13.20
2016,07,27,08,18,13.20
2016,07,27,08,19,13.20
2016,07,27,08,20,13.20
2016,07,27,08,21,13.20
2016,07,27,08,22,13.20
2016,07,27,08,23,13.20
2016,07,27,08,24,13.20
2016,07,27,08,25,13.20
2016,07,27,08,26,13.20
2016,07,27,08,27,13.20
2016,07,27,08,28,13.20
2016,07,27,08,29,13.20
2016,07,27,08,30,13.30
2016,07,27,08,31,13.30
2016,07,27,08,32,13.30
2016,07,27,08,33,13.30
2016,07,27,08,34,13.20
2016,07,27,08,35,13.20
2016,07,27,08,36,13.20
2016,07,27,08,37,13.20
2016,07,27,08,38,13.20
2016,07,27,08,39,13.20
2016,07,27,08,40,13.20
2016,07,27,08,41,13.20
2016,07,27,08,42,13.20
2016,07,27,08,43,13.20
2016,07,27,08,44,13.20
2016,07,27,08,45,13.20
2016,07,27,08,46,13.30
2016,07,27,08,47,13.20
2016,07,27,08,48,13.20
2016,07,27,08,49,13.20
2016,07,27,08,50,13.20
2016,07,27,08,51,13.20
2016,07,27,08,52,13.20
2016,07,27,08,53,13.20
2016,07,27,08,54,13.20
2016,07,27,08,55,13.20
2016,07,27,08,56,13.20
2016,07,27,08,57,13.10
2016,07,27,08,58,13.10
2016,07,27,08,59,13.10
2016,07,27,09,00,13.10
2016,07,27,09,01,13.10
2016,07,27,09,02,13.10
2016,07,27,09,03,13.10
2016,07,27,09,04,13.10
2016,07,27,09,05,13.10
2016,07,27,09,06,13.10
2016,07,27,09,07,13.10
2016,07,27,09,08,13.10
2016,07,27,09,09,13.10
2016,07,27,09,10,13.10
2016,07,27,09,11,13.10
2016,07,27,09,12,13.10
2016,07,27,09,13,13.10
2016,07,27,09,14,13.10
2016,07,27,09,15,13.10
2016,07,27,09,16,13.20
2016,07,27,09,17,13.20
2016,07,27,09,18,13.20
2016,07,27,09,19,13.20
2016,07,27,09,20,13.20
2016,07,27,09,21,13.20
2016,07,27,09,22,13.20
2016,07,27,09,23,13.20
2016,07,27,09,24,13.20
2016,07,27,09,25,13.20
2016,07,27,09,26,13.10
2016,07,27,09,27,13.10
2016,07,27,09,28,13.10
2016,07,27,09,29,13.10
2016,07,27,09,30,13.10
2016,07,27,09,31,13.10
2016,07,27,09,32,13.20
2016,07,27,09,33,13.20
2016,07,27,09,34,13.20
2016,07,27,09,35,13.20
2016,07,27,09,36,13.20
2016,07,27,09,37,13.20
2016,07,27,09,38,13.30
2016,07,27,09,39,13.30
2016,07,27,09,40,13.30
2016,07,27,09,41,13.40
2016,07,27,09,42,13.40
2016,07,27,09,43,13.50
2016,07,27,09,44,13.50
2016,07,27,09,45,13.50
2016,07,27,09,46,13.60
2016,07,27,09,47,13.60
2016,07,27,09,48,13.50
2016,07,27,09,49,13.50
2016,07,27,09,50,13.40
2016,07,27,09,51,13.50
2016,07,27,09,52,13.40
2016,07,27,09,53,13.40
2016,07,27,09,54,13.50
2016,07,27,09,55,13.60
2016,07,27,09,56,13.50
2016,07,27,09,57,13.50
2016,07,27,09,58,13.40
2016,07,27,09,59,13.40
2016,07,27,10,00,13.40
2016,07,27,10,01,13.40
2016,07,27,10,02,13.50
2016,07,27,10,03,13.50
2016,07,27,10,04,13.60
2016,07,27,10,05,13.60
2016,07,27,10,06,13.60
2016,07,27,10,07,13.70
2016,07,27,10,08,13.70
2016,07,27,10,09,13.70
2016,07,27,10,10,13.70
2016,07,27,10,11,13.70
2016,07,27,10,12,13.70
2016,07,27,10,13,13.70
2016,07,27,10,14,13.70
2016,07,27,10,15,13.70
2016,07,27,10,16,13.70
2016,07,27,10,17,13.70
2016,07,27,10,18,13.70
2016,07,27,10,19,13.70
2016,07,27,10,20,13.80
2016,07,27,10,21,13.80
2016,07,27,10,22,13.80
2016,07,27,10,23,13.80
2016,07,27,10,24,13.80
2016,07,27,10,25,13.80
2016,07,27,10,26,13.80
2016,07,27,10,27,13.90
2016,07,27,10,28,13.90
2016,07,27,10,29,13.90
2016,07,27,10,30,13.90
2016,07,27,10,31,13.90
2016,07,27,10,32,13.90
2016,07,27,10,33,13.80
2016,07,27,10,34,13.80
2016,07,27,10,35,13.80
2016,07,27,10,36,13.80
2016,07,27,10,37,13.80
2016,07,27,10,38,13.80
2016,07,27,10,39,13.70
2016,07,27,10,40,13.70
2016,07,27,10,41,13.70
2016,07,27,10,42,13.70
2016,07,27,10,43,13.70
2016,07,27,10,44,13.80
2016,07,27,10,45,13.90
2016,07,27,10,46,14.00
2016,07,27,10,47,14.10
2016,07,27,10,48,14.10
2016,07,27,10,49,14.10
2016,07,27,10,50,14.10
2016,07,27,10,51,14.20
2016,07,27,10,52,14.20
2016,07,27,10,53,14.20
2016,07,27,10,54,14.20
2016,07,27,10,55,14.30
2016,07,27,10,56,14.30
2016,07,27,10,57,14.40
2016,07,27,10,58,14.50
2016,07,27,10,59,14.50
2016,07,27,11,00,14.60
2016,07,27,11,01,14.60
2016,07,27,11,02,14.70
2016,07,27,11,03,14.70
2016,07,27,11,04,14.70
2016,07,27,11,05,14.70
2016,07,27,11,06,14.60
2016,07,27,11,07,14.60
2016,07,27,11,08,14.50
2016,07,27,11,09,14.50
2016,07,27,11,10,14.50
2016,07,27,11,11,14.40
2016,07,27,11,12,14.30
2016,07,27,11,13,14.30
2016,07,27,11,14,14.20
2016,07,27,11,15,14.20
2016,07,27,11,16,14.20
2016,07,27,11,17,14.20
2016,07,27,11,18,14.20
2016,07,27,11,19,14.20
2016,07,27,11,20,14.30
2016,07,27,11,21,14.40
2016,07,27,11,22,14.50
2016,07,27,11,23,14.60
2016,07,27,11,24,14.80
2016,07,27,11,25,14.80
2016,07,27,11,26,14.90
2016,07,27,11,27,14.90
2016,07,27,11,28,14.90
2016,07,27,11,29,15.10
2016,07,27,11,30,15.20
2016,07,27,11,31,15.30
2016,07,27,11,32,15.30
2016,07,27,11,33,15.40
2016,07,27,11,34,15.40
2016,07,27,11,35,15.50
2016,07,27,11,36,15.50
2016,07,27,11,37,15.50
2016,07,27,11,38,15.60
2016,07,27,11,39,15.60
2016,07,27,11,40,15.70
2016,07,27,11,41,15.70
2016,07,27,11,42,15.70
2016,07,27,11,43,15.80
2016,07,27,11,44,15.80
2016,07,27,11,45,15.90
2016,07,27,11,46,15.90
2016,07,27,11,47,15.90
2016,07,27,11,48,16.00
2016,07,27,11,49,16.00
2016,07,27,11,50,16.10
2016,07,27,11,51,16.10
2016,07,27,11,52,16.20
2016,07,27,11,53,16.30
2016,07,27,11,54,16.30
2016,07,27,11,55,16.30
2016,07,27,11,56,16.30
2016,07,27,11,57,16.30
2016,07,27,11,58,16.40
2016,07,27,11,59,16.50
2016,07,27,12,00,16.60
2016,07,27,12,01,16.60
2016,07,27,12,02,16.70
2016,07,27,12,03,16.80
2016,07,27,12,04,16.90
2016,07,27,12,05,16.90
2016,07,27,12,06,16.90
2016,07,27,12,07,16.90
2016,07,27,12,08,17.00
2016,07,27,12,09,17.10
2016,07,27,12,10,17.10
2016,07,27,12,11,17.20
2016,07,27,12,12,17.30
2016,07,27,12,13,17.30
2016,07,27,12,14,17.40
2016,07,27,12,15,17.40
2016,07,27,12,16,17.50
2016,07,27,12,17,17.60
2016,07,27,12,18,17.60
2016,07,27,12,19,17.60
2016,07,27,12,20,17.70
2016,07,27,12,21,17.70
2016,07,27,12,22,17.70
2016,07,27,12,23,17.70
2016,07,27,12,24,17.70
2016,07,27,12,25,17.70
2016,07,27,12,26,17.70
2016,07,27,12,27,17.70
2016,07,27,12,28,17.80
2016,07,27,12,29,17.80
2016,07,27,12,30,17.90
2016,07,27,12,31,17.90
2016,07,27,12,32,17.90
2016,07,27,12,33,17.90
2016,07,27,12,34,18.00
2016,07,27,12,35,18.00
2016,07,27,12,36,18.00
2016,07,27,12,37,18.00
2016,07,27,12,38,18.00
2016,07,27,12,39,18.00
2016,07,27,12,40,18.10
2016,07,27,12,41,18.10
2016,07,27,12,42,18.20
2016,07,27,12,43,18.30
2016,07,27,12,44,18.30
2016,07,27,12,45,18.30
2016,07,27,12,46,18.30
2016,07,27,12,47,18.30
2016,07,27,12,48,18.30
2016,07,27,12,49,18.30
2016,07,27,12,50,18.30
2016,07,27,12,51,18.30
2016,07,27,12,52,18.30
2016,07,27,12,53,18.30
2016,07,27,12,54,18.30
2016,07,27,12,55,18.30
2016,07,27,12,56,18.30
2016,07,27,12,57,18.30
2016,07,27,12,58,18.30
2016,07,27,12,59,18.40
2016,07,27,13,00,18.40
2016,07,27,13,01,18.40
2016,07,27,13,02,18.40
2016,07,27,13,03,18.40
2016,07,27,13,04,18.30
2016,07,27,13,05,18.20
2016,07,27,13,06,18.20
2016,07,27,13,07,18.20
2016,07,27,13,08,18.20
2016,07,27,13,09,18.20
2016,07,27,13,10,18.20
2016,07,27,13,11,18.00
2016,07,27,13,12,17.70
2016,07,27,13,13,17.40
2016,07,27,13,14,17.10
2016,07,27,13,15,16.90
2016,07,27,13,16,16.70
2016,07,27,13,17,16.50
2016,07,27,13,18,16.40
2016,07,27,13,19,16.30
2016,07,27,13,20,16.30
2016,07,27,13,21,16.40
2016,07,27,13,22,16.40
2016,07,27,13,23,16.30
2016,07,27,13,24,16.30
2016,07,27,13,25,16.20
2016,07,27,13,26,16.10
2016,07,27,13,27,16.10
2016,07,27,13,28,16.10
2016,07,27,13,29,16.10
2016,07,27,13,30,16.10
2016,07,27,13,31,16.10
2016,07,27,13,32,16.20
2016,07,27,13,33,16.30
2016,07,27,13,34,16.40
2016,07,27,13,35,16.40
2016,07,27,13,36,16.40
2016,07,27,13,37,16.40
2016,07,27,13,38,16.30
2016,07,27,13,39,16.20
2016,07,27,13,40,16.20
2016,07,27,13,41,16.10
2016,07,27,13,42,16.00
2016,07,27,13,43,16.10
2016,07,27,13,44,16.10
2016,07,27,13,45,16.20
2016,07,27,13,46,16.20
2016,07,27,13,47,16.10
2016,07,27,13,48,16.10
2016,07,27,13,49,16.00
2016,07,27,13,50,15.90
2016,07,27,13,51,15.90
2016,07,27,13,52,15.80
2016,07,27,13,53,15.80
2016,07,27,13,54,15.80
2016,07,27,13,55,15.80
2016,07,27,13,56,15.80
2016,07,27,13,57,15.80
2016,07,27,13,58,15.90
2016,07,27,13,59,16.00
2016,07,27,14,00,16.10
2016,07,27,14,01,16.20
2016,07,27,14,02,16.30
2016,07,27,14,03,16.40
2016,07,27,14,04,16.40
2016,07,27,14,05,16.50
2016,07,27,14,06,16.60
2016,07,27,14,07,16.60
2016,07,27,14,08,16.60
2016,07,27,14,09,16.70
2016,07,27,14,10,16.70
2016,07,27,14,11,16.80
2016,07,27,14,12,16.90
2016,07,27,14,13,16.90
2016,07,27,14,14,17.00
2016,07,27,14,15,17.10
2016,07,27,14,16,17.20
2016,07,27,14,17,17.30
2016,07,27,14,18,17.30
2016,07,27,14,19,17.30
2016,07,27,14,20,17.40
2016,07,27,14,21,17.50
2016,07,27,14,22,17.60
2016,07,27,14,23,17.70
2016,07,27,14,24,17.70
2016,07,27,14,25,17.80
2016,07,27,14,26,17.80
2016,07,27,14,27,17.80
2016,07,27,14,28,17.80
2016,07,27,14,29,17.80
2016,07,27,14,30,17.90
2016,07,27,14,31,18.00
2016,07,27,14,32,18.10
2016,07,27,14,33,18.20
2016,07,27,14,34,18.30
2016,07,27,14,35,18.40
2016,07,27,14,36,18.50
2016,07,27,14,37,18.60
2016,07,27,14,38,18.60
2016,07,27,14,39,18.70
2016,07,27,14,40,18.80
2016,07,27,14,41,18.90
2016,07,27,14,42,18.90
2016,07,27,14,43,19.00
2016,07,27,14,44,18.90
2016,07,27,14,45,18.90
2016,07,27,14,46,18.80
2016,07,27,14,47,18.80
2016,07,27,14,48,18.90
2016,07,27,14,49,19.00
2016,07,27,14,50,19.10
2016,07,27,14,51,19.20
2016,07,27,14,52,19.20
2016,07,27,14,53,19.20
2016,07,27,14,54,19.20
2016,07,27,14,55,19.20
2016,07,27,14,56,19.30
2016,07,27,14,57,19.40
2016,07,27,14,58,19.40
2016,07,27,14,59,19.40
2016,07,27,15,00,19.50
2016,07,27,15,01,19.70
2016,07,27,15,02,19.80
2016,07,27,15,03,19.90
2016,07,27,15,04,20.00
2016,07,27,15,05,20.20
2016,07,27,15,06,20.30
2016,07,27,15,07,20.20
2016,07,27,15,08,20.20
2016,07,27,15,09,20.10
2016,07,27,15,10,20.00
2016,07,27,15,11,19.90
2016,07,27,15,12,19.90
2016,07,27,15,13,19.90
2016,07,27,15,14,19.80
2016,07,27,15,15,19.70
2016,07,27,15,16,19.70
2016,07,27,15,17,19.60
2016,07,27,15,18,19.50
2016,07,27,15,19,19.40
2016,07,27,15,20,19.30
2016,07,27,15,21,19.10
2016,07,27,15,22,19.00
2016,07,27,15,23,18.90
2016,07,27,15,24,18.90
2016,07,27,15,25,18.90
2016,07,27,15,26,19.00
2016,07,27,15,27,18.90
2016,07,27,15,28,18.90
2016,07,27,15,29,18.90
2016,07,27,15,30,18.90
2016,07,27,15,31,18.80
2016,07,27,15,32,18.80
2016,07,27,15,33,18.90
2016,07,27,15,34,18.90
2016,07,27,15,35,18.90
2016,07,27,15,36,19.00
2016,07,27,15,37,19.00
2016,07,27,15,38,19.10
2016,07,27,15,39,19.10
2016,07,27,15,40,19.10
2016,07,27,15,41,19.10
2016,07,27,15,42,19.20
2016,07,27,15,43,19.20
2016,07,27,15,44,19.30
2016,07,27,15,45,19.40
2016,07,27,15,46,19.40
2016,07,27,15,47,19.50
2016,07,27,15,48,19.50
2016,07,27,15,49,19.50
2016,07,27,15,50,19.40
2016,07,27,15,51,19.30
2016,07,27,15,52,19.20
2016,07,27,15,53,19.20
2016,07,27,15,54,19.20
2016,07,27,15,55,19.20
2016,07,27,15,56,19.20
2016,07,27,15,57,19.20
2016,07,27,15,58,19.20
2016,07,27,15,59,19.30
2016,07,27,16,00,19.30
2016,07,27,16,01,19.30
2016,07,27,16,02,19.30
2016,07,27,16,03,19.30
2016,07,27,16,04,19.20
2016,07,27,16,05,19.20
2016,07,27,16,06,19.10
2016,07,27,16,07,19.20
2016,07,27,16,08,19.20
2016,07,27,16,09,19.20
2016,07,27,16,10,19.20
2016,07,27,16,11,19.30
2016,07,27,16,12,19.30
2016,07,27,16,13,19.30
2016,07,27,16,14,19.20
2016,07,27,16,15,19.20
2016,07,27,16,16,19.10
2016,07,27,16,17,19.00
2016,07,27,16,18,19.00
2016,07,27,16,19,18.90
2016,07,27,16,20,18.80
2016,07,27,16,21,18.80
2016,07,27,16,22,18.70
2016,07,27,16,23,18.80
2016,07,27,16,24,18.80
2016,07,27,16,25,18.80
2016,07,27,16,26,18.90
2016,07,27,16,27,18.90
2016,07,27,16,28,18.90
2016,07,27,16,29,18.90
2016,07,27,16,30,18.90
2016,07,27,16,31,18.90
2016,07,27,16,32,18.90
2016,07,27,16,33,18.90
2016,07,27,16,34,19.00
2016,07,27,16,35,19.00
2016,07,27,16,36,19.00
2016,07,27,16,37,19.00
2016,07,27,16,38,19.00
2016,07,27,16,39,19.10
2016,07,27,16,40,19.10
2016,07,27,16,41,19.10
2016,07,27,16,42,19.10
2016,07,27,16,43,19.10
2016,07,27,16,44,19.10
2016,07,27,16,45,19.00
2016,07,27,16,46,18.80
2016,07,27,16,47,18.70
2016,07,27,16,48,18.60
2016,07,27,16,49,18.50
2016,07,27,16,50,18.40
2016,07,27,16,51,18.50
2016,07,27,16,52,18.60
2016,07,27,16,53,18.60
2016,07,27,16,54,18.60
2016,07,27,16,55,18.70
2016,07,27,16,56,18.70
2016,07,27,16,57,18.80
2016,07,27,16,58,18.90
2016,07,27,16,59,19.00
2016,07,27,17,00,19.00
2016,07,27,17,01,19.00
2016,07,27,17,02,19.00
2016,07,27,17,03,18.90
2016,07,27,17,04,18.90
2016,07,27,17,05,18.90
2016,07,27,17,06,18.90
2016,07,27,17,07,18.90
2016,07,27,17,08,18.90
2016,07,27,17,09,18.90
2016,07,27,17,10,18.80
2016,07,27,17,11,18.80
2016,07,27,17,12,18.70
2016,07,27,17,13,18.70
2016,07,27,17,14,18.60
2016,07,27,17,15,18.60
2016,07,27,17,16,18.50
2016,07,27,17,17,18.50
2016,07,27,17,18,18.50
2016,07,27,17,19,18.50